GFSSGP_250_spd_000.txt.gz
Wind_Speed
34 43 41 45 40 39 42 47 46 44 46 45 46 42 43 47 50 51 47 54 61 64 64 65 73 81 75 76 68 65 62 64 64 68 73 74 76 79 80 84 96 99 95 94 92 92 89 87 83
42 44 41 43 40 41 45 47 46 48 47 49 43 43 48 51 52 46 47 59 65 67 64 72 78 80 77 72 69 63 61 61 64 69 73 75 77 79 79 83 85 96 100 100 95 91 91 89 88
47 49 43 45 47 47 49 49 50 48 49 49 47 44 48 51 47 49 57 62 68 65 71 78 82 80 73 68 62 59 57 59 62 66 70 73 77 80 79 81 85 88 96 104 98 97 93 92 90
51 50 47 47 50 49 52 49 50 51 59 53 49 45 49 50 52 56 58 65 67 68 76 81 87 78 71 65 61 59 57 58 60 65 67 68 71 76 78 79 84 90 92 99 104 100 98 94 92
55 48 49 51 48 51 54 54 54 56 54 53 48 47 50 54 55 58 61 66 69 74 80 82 82 76 71 66 64 64 60 57 55 57 61 65 66 71 75 77 82 87 95 95 99 101 101 97 94
52 48 51 50 49 51 58 57 56 54 56 56 50 51 53 56 59 58 64 67 73 75 81 81 83 76 69 66 65 63 58 52 48 48 51 58 62 65 70 77 79 84 92 98 97 101 101 101 96
46 53 54 53 56 59 54 55 55 53 57 59 56 53 53 61 59 62 65 70 73 76 85 86 84 74 67 66 65 60 54 52 49 45 47 52 58 62 65 72 77 79 85 95 100 100 103 101 100
50 58 57 57 61 57 57 55 50 53 57 57 55 55 56 67 61 65 62 71 73 80 88 89 85 73 67 67 61 54 51 50 49 49 47 47 53 58 59 63 69 76 77 82 93 97 100 102 99
55 62 58 57 60 60 58 51 53 54 52 54 55 54 61 61 61 65 66 73 81 84 89 93 82 69 67 65 59 53 49 46 44 41 42 41 43 49 55 57 59 65 72 77 80 88 96 98 98
62 67 58 60 61 57 51 50 50 53 52 49 53 56 62 62 70 69 70 78 83 89 93 94 78 69 68 63 56 49 43 39 38 37 36 35 37 39 43 50 49 53 59 67 74 80 86 91 97
71 66 62 60 53 49 51 50 50 47 48 51 53 56 60 64 69 67 74 80 87 91 90 88 73 70 67 59 51 42 39 36 33 31 29 28 29 33 37 40 41 44 49 54 62 73 79 86 91
67 65 58 53 52 50 50 49 44 45 46 51 53 58 62 68 70 71 75 84 84 87 87 81 70 70 63 55 45 39 35 32 29 28 25 24 25 27 33 34 35 38 41 46 51 60 74 82 87
62 59 52 54 51 51 47 45 44 49 50 52 56 59 64 67 68 73 76 84 86 81 82 73 69 65 60 47 42 36 32 27 21 20 20 20 21 24 25 26 29 31 35 39 46 54 64 75 84
45 44 52 54 54 51 46 46 48 52 54 56 61 63 64 66 69 76 77 77 81 77 75 68 68 61 51 43 38 33 28 21 16 12 11 12 15 17 20 21 25 29 32 36 44 52 59 70 81
45 49 51 56 50 49 46 48 48 54 56 56 60 64 61 69 76 77 74 76 74 71 68 65 62 54 44 40 35 28 23 17 15 10 7 5 6 8 12 17 23 27 31 36 42 50 57 65 74
53 52 55 49 52 55 49 51 51 57 60 64 64 59 64 75 77 72 72 71 70 64 63 61 53 44 39 35 28 21 17 15 13 8 4 1 3 8 11 14 17 21 26 33 39 45 49 56 67
56 59 56 52 53 53 52 56 54 59 64 62 63 68 72 73 71 68 66 66 65 58 59 57 44 36 33 29 23 23 23 20 17 12 8 3 2 7 13 15 17 22 26 30 36 41 48 56 64
56 54 54 55 57 57 58 58 60 64 62 67 67 66 70 69 63 62 63 61 57 53 53 45 35 30 27 23 26 28 25 24 24 19 16 9 5 7 11 12 14 18 24 28 31 36 43 51 62
54 53 54 59 58 56 59 61 62 63 66 64 64 67 65 60 58 59 60 54 50 48 47 35 28 25 21 19 26 24 20 20 24 25 19 18 15 11 8 11 15 21 24 27 29 33 38 46 58
49 56 58 60 63 59 61 63 64 64 65 65 62 58 56 53 55 57 52 45 44 43 40 28 23 18 12 13 19 18 23 20 25 25 17 20 20 18 15 15 15 18 22 25 28 34 39 46 57
43 45 51 54 55 51 58 60 61 60 57 59 55 55 52 52 52 52 40 39 38 38 32 20 19 12 6 8 12 17 12 13 23 24 19 21 23 26 22 20 19 18 23 26 27 33 41 48 57
37 37 38 43 43 43 40 43 52 56 57 56 53 52 48 48 46 36 32 34 35 33 24 16 15 8 2 3 6 10 14 13 19 25 21 22 25 24 19 19 19 22 31 33 25 28 40 49 59
40 38 34 37 36 37 40 38 40 42 43 47 46 45 42 39 32 27 28 29 30 26 18 13 13 5 7 4 6 6 16 17 26 25 30 31 31 29 24 23 22 19 26 35 30 33 46 51 59
42 38 35 33 35 37 39 36 32 38 35 35 34 34 32 21 21 20 22 27 26 20 14 9 11 5 10 9 5 8 12 14 26 25 29 33 33 36 34 26 22 22 20 24 31 40 50 56 60
44 43 38 30 34 32 33 30 30 34 30 26 25 24 14 11 12 18 20 23 22 16 9 8 10 6 9 9 2 10 11 21 24 27 26 34 34 38 37 31 28 24 20 20 27 39 46 54 63
38 39 34 31 27 26 29 28 29 27 27 20 16 9 7 9 8 17 19 20 19 12 5 7 10 9 10 13 7 19 20 17 21 25 28 33 27 32 38 32 31 31 27 24 27 38 47 55 57
37 34 35 28 23 24 24 23 29 27 23 18 11 5 6 6 9 15 17 16 15 8 2 6 10 12 9 17 13 20 17 21 19 25 23 25 32 31 33 33 26 32 30 27 29 34 38 46 47
38 38 34 27 23 24 28 27 30 27 22 16 12 8 8 6 8 11 15 12 11 7 2 6 10 11 12 9 21 16 16 13 15 23 19 31 30 31 29 34 27 30 23 32 28 31 38 40 38
32 37 35 31 27 25 25 29 27 24 19 15 13 11 12 5 5 9 13 8 8 7 5 5 11 9 13 10 21 20 17 16 17 23 20 18 20 27 27 31 27 27 28 26 23 24 23 29 36
37 34 37 36 29 23 24 23 24 24 21 17 12 12 14 8 4 4 9 6 3 5 7 5 10 12 9 13 19 24 21 18 23 25 20 22 19 25 27 22 21 24 26 26 23 21 20 18 22

GFSSGP_250_spd_003.txt.gz
Wind_Speed
27 27 31 38 43 44 43 43 48 50 52 52 53 55 55 47 45 39 42 44 47 47 48 51 56 57 60 63 70 69 68 66 66 65 66 68 71 76 76 78 86 95 91 90 89 98 94 90 83
25 30 36 41 45 50 46 50 53 51 52 55 56 58 54 51 41 43 42 46 50 48 49 53 59 62 65 68 75 72 64 61 60 60 60 63 65 68 72 73 78 83 92 93 95 97 100 94 89
34 32 36 45 47 50 48 53 52 50 52 56 56 54 54 53 48 45 48 51 56 53 54 56 62 67 70 74 77 66 59 56 54 55 58 61 63 65 66 70 71 75 79 91 95 95 98 101 95
38 37 41 53 47 49 52 55 54 54 61 64 57 55 54 49 52 50 51 55 60 61 60 63 68 72 76 83 75 63 56 54 51 52 54 57 61 65 68 71 75 78 78 81 88 96 101 99 98
42 41 48 53 48 50 58 59 59 61 66 63 53 52 53 53 51 48 53 57 65 63 64 67 70 80 80 81 70 61 56 55 53 52 52 55 59 63 67 72 75 77 81 83 87 89 94 104 99
49 52 54 58 52 53 67 66 64 61 67 57 52 49 52 52 52 51 54 60 63 64 70 69 74 82 85 76 66 61 60 58 54 50 48 48 54 61 65 69 75 79 81 85 88 91 93 98 100
55 55 61 54 58 66 65 67 64 64 64 56 47 50 50 51 50 53 56 62 62 68 69 69 81 89 82 75 65 61 60 58 54 50 47 45 47 55 61 64 69 74 78 81 89 93 95 95 98
59 62 63 62 63 71 68 69 68 65 61 49 50 50 49 49 49 52 56 63 64 69 72 78 85 89 79 71 62 61 61 54 51 48 46 44 44 47 54 59 62 68 75 79 83 91 95 97 99
68 69 69 63 67 77 74 67 65 60 57 53 50 51 49 48 54 56 60 64 68 70 74 80 89 80 77 66 63 62 53 47 45 43 41 40 42 44 49 55 55 59 66 74 79 86 92 97 99
73 74 72 68 72 78 74 66 62 56 54 54 48 48 50 52 57 59 64 66 67 71 76 86 83 80 72 66 65 54 45 41 41 40 39 38 37 38 40 45 50 51 57 64 72 79 86 91 96
74 75 75 73 73 83 72 61 52 48 53 53 49 47 53 56 60 62 65 67 67 72 84 86 80 78 66 65 58 46 44 41 36 33 32 32 31 34 37 40 43 45 49 54 62 70 78 84 92
74 73 69 72 83 79 67 54 49 47 55 53 48 51 56 57 60 63 67 65 70 78 83 79 78 72 66 65 52 50 46 37 31 28 27 25 25 27 30 34 38 41 44 47 49 57 66 78 84
71 73 74 84 82 69 51 46 50 50 54 55 50 55 56 59 61 65 64 69 76 76 78 74 74 66 66 57 55 50 39 32 26 21 20 20 21 22 25 27 31 35 39 42 42 50 57 69 80
76 79 83 76 71 64 51 51 50 55 54 55 53 53 57 61 65 62 68 73 75 75 73 73 66 64 63 54 50 40 33 28 21 15 12 11 13 16 19 21 25 29 37 39 41 46 52 60 73
84 84 81 69 66 54 53 54 58 55 57 57 56 56 58 62 64 65 69 73 74 68 67 66 59 62 55 48 37 31 25 21 16 9 7 6 9 11 12 17 21 26 31 37 41 45 51 57 65
90 85 80 67 62 60 56 57 59 59 62 61 59 58 61 66 64 70 68 70 65 62 64 55 54 55 49 35 31 25 28 21 14 7 4 3 1 7 12 13 18 24 29 33 39 45 52 56 63
89 80 65 62 60 58 56 56 56 57 58 59 60 63 65 67 71 67 65 62 59 60 55 48 50 46 40 27 27 28 31 26 18 12 6 5 4 6 10 13 16 21 26 32 36 43 48 54 62
67 59 56 54 55 55 52 53 57 55 63 61 63 67 70 71 68 61 60 58 56 55 45 43 44 40 33 22 25 29 31 26 25 25 17 12 8 7 8 11 14 18 24 30 35 38 45 54 59
49 50 48 47 50 51 51 51 61 59 62 65 66 70 68 65 58 57 54 52 50 45 40 41 36 34 23 17 20 24 28 22 26 26 25 16 15 10 8 8 11 16 20 26 31 36 43 47 52
39 39 42 44 46 44 48 50 55 60 64 57 59 64 60 58 56 50 46 43 42 37 35 37 28 28 16 15 19 26 18 17 20 24 22 22 19 17 13 10 10 15 21 25 29 32 40 48 52
41 41 38 36 36 38 38 43 49 51 48 45 45 46 47 47 43 39 36 32 35 32 31 30 23 20 11 13 18 22 20 8 11 16 20 23 21 20 16 13 10 11 15 20 25 31 36 46 52
38 38 37 36 36 36 34 36 41 40 40 43 45 42 40 35 29 28 24 29 28 28 28 24 19 13 6 8 11 15 20 13 10 10 15 18 20 22 20 18 17 16 15 17 25 31 37 46 53
36 33 35 36 37 36 36 32 38 39 40 40 36 37 31 23 22 18 20 22 25 25 23 20 15 6 1 4 9 11 15 11 9 11 13 20 22 22 24 21 28 30 31 22 26 35 40 46 55
33 35 33 31 35 38 38 31 38 35 36 31 28 29 22 14 13 15 18 18 23 22 18 17 12 4 6 4 5 10 12 14 13 14 23 23 25 22 16 21 20 27 30 27 32 41 49 55 65
33 36 36 35 34 32 32 32 34 32 28 22 27 25 17 8 10 13 15 17 19 19 11 13 10 3 10 13 3 11 12 15 12 19 28 29 27 27 21 21 19 22 25 31 36 44 46 52 62
35 37 36 38 36 32 31 31 35 31 24 23 26 24 12 8 8 11 14 15 16 16 8 9 7 2 9 12 14 9 10 12 14 23 32 30 36 33 33 21 21 18 21 27 35 41 50 58 68
33 35 36 36 37 31 33 32 32 32 27 26 26 23 10 8 8 10 12 12 12 11 4 5 4 0 8 14 18 15 13 13 14 25 29 31 31 38 36 35 26 24 19 23 33 40 53 63 70
35 34 36 33 32 31 33 34 30 29 28 22 21 19 12 9 9 8 10 9 10 9 3 3 2 0 7 18 20 14 15 19 15 22 24 27 33 27 26 37 37 29 23 25 34 45 57 71 75
32 34 37 34 32 32 31 32 27 25 23 13 15 16 13 8 8 7 8 7 9 7 3 1 2 1 4 21 19 18 15 15 18 20 19 31 33 31 21 31 36 38 31 21 27 43 57 72 73
36 41 36 35 33 31 30 29 25 22 17 10 15 13 16 12 8 7 9 6 8 4 5 3 1 3 3 18 26 18 17 15 12 17 9 21 29 26 22 21 27 31 35 31 22 31 51 65 64

GFSSGP_250_spd_006.txt.gz
Wind_Speed
28 26 28 30 32 34 39 47 40 39 44 53 56 55 54 61 62 59 52 47 46 45 47 48 48 47 50 52 56 60 61 64 66 64 66 69 70 71 76 78 81 86 94 93 98 101 94 89 83
35 34 30 33 37 41 42 51 42 50 52 57 62 62 63 63 65 55 50 49 47 45 48 50 54 57 58 57 60 60 62 70 68 65 64 66 66 65 67 72 78 80 88 93 97 100 104 98 92
38 39 39 37 38 42 47 54 48 53 57 64 66 64 62 61 61 53 54 51 47 44 42 50 55 61 58 59 60 62 69 70 66 65 62 61 63 64 63 65 71 77 80 89 94 95 100 105 100
46 50 44 44 44 43 51 61 61 66 62 66 73 69 65 62 59 56 54 52 47 43 46 50 56 57 58 57 61 67 73 68 64 60 57 57 58 64 65 65 68 73 78 82 87 95 101 102 104
56 54 51 48 49 53 59 67 70 68 67 72 78 74 64 63 56 54 54 51 45 47 49 56 64 61 59 63 68 74 73 64 58 53 54 53 54 58 64 67 68 71 76 80 85 90 96 102 101
57 59 59 56 56 60 64 71 74 72 73 71 82 71 63 59 52 56 55 52 50 49 56 60 67 65 64 69 74 76 72 62 55 53 54 55 55 55 59 65 69 71 74 79 84 89 92 95 103
60 62 62 63 65 65 69 74 73 71 75 74 87 71 63 54 55 56 54 56 54 56 63 64 68 63 68 74 79 78 67 58 56 56 55 53 53 52 51 58 66 71 74 78 83 86 90 92 96
62 69 68 70 69 69 73 78 77 78 76 79 84 67 56 55 55 55 53 55 56 61 63 67 68 71 77 76 79 71 59 59 55 53 51 49 49 50 50 53 61 65 73 77 82 87 87 90 92
63 68 72 71 72 73 79 78 78 75 71 84 73 58 55 56 55 56 55 57 57 61 65 69 72 78 76 79 71 60 59 51 45 43 43 43 42 43 44 48 54 60 64 75 79 84 89 89 90
66 69 68 69 70 75 75 76 71 75 81 85 69 59 53 55 58 54 57 60 61 64 67 68 77 78 77 71 60 60 51 43 37 35 34 36 37 39 41 41 45 52 58 64 74 79 84 88 90
69 68 69 70 77 77 78 80 78 83 86 75 60 52 53 57 55 55 55 58 60 64 66 73 77 80 71 62 60 53 49 46 37 30 29 30 32 33 35 37 39 42 48 54 62 73 77 82 88
71 65 73 82 75 76 76 79 82 87 78 69 51 52 55 56 58 58 56 59 63 67 71 77 79 71 66 58 54 50 49 46 36 27 25 26 27 30 31 31 33 38 42 49 55 62 70 77 81
72 77 74 74 77 82 76 84 86 74 71 61 52 54 60 59 60 62 59 61 65 72 74 80 75 68 57 55 50 48 43 38 33 24 20 21 23 24 25 27 29 33 36 41 49 56 59 67 77
72 74 75 75 73 76 82 85 77 69 70 60 56 61 60 59 60 61 61 66 68 73 77 72 67 59 52 47 46 40 36 31 26 20 15 13 15 17 19 23 28 30 34 37 40 47 54 58 68
74 73 71 74 78 82 84 75 61 58 63 58 49 57 58 59 61 64 64 68 73 76 73 64 60 49 48 44 36 33 31 26 22 17 12 9 9 11 15 19 23 27 29 34 36 42 48 54 61
78 75 75 78 80 85 83 61 58 54 57 62 57 56 57 59 64 66 69 73 74 70 62 58 48 45 41 38 26 30 30 28 25 17 9 7 6 8 11 16 19 23 26 31 35 38 43 49 57
72 73 76 82 84 80 68 56 59 59 59 58 56 59 60 62 66 70 70 71 64 58 56 46 39 39 36 28 20 24 26 28 31 22 13 7 4 3 8 12 15 21 26 28 31 35 39 44 54
76 78 83 87 85 58 48 47 49 53 53 59 59 60 61 64 65 62 64 59 55 50 43 35 35 31 33 22 16 17 20 27 32 25 18 12 6 4 2 7 11 16 22 27 30 32 37 43 50
75 77 66 58 45 42 42 45 51 54 52 51 54 56 59 62 56 56 54 49 42 36 30 33 30 28 28 18 16 13 12 21 26 26 21 18 11 8 5 4 7 12 18 23 28 33 38 43 47
71 57 43 41 42 42 40 42 43 43 44 45 43 45 46 49 52 47 45 38 29 25 27 29 23 24 22 15 20 18 15 15 18 23 25 21 17 13 10 6 7 11 17 21 25 29 34 39 45
51 45 38 39 39 38 38 42 41 40 42 44 45 44 45 47 41 40 34 25 22 22 27 24 18 20 16 11 19 20 18 17 10 16 21 18 21 18 14 10 9 10 15 20 23 30 35 40 46
38 34 33 31 32 32 36 38 33 36 41 41 40 39 39 35 33 31 24 18 18 23 24 21 16 13 9 8 12 14 14 21 15 12 16 19 20 21 20 17 14 14 16 21 26 29 34 39 44
27 25 28 28 28 28 28 31 35 36 37 34 33 29 31 28 29 25 17 15 17 22 20 16 14 11 7 5 6 13 11 13 16 14 17 17 17 18 18 20 19 16 20 22 26 30 35 42 47
23 24 28 29 31 27 31 30 31 31 31 32 27 31 27 27 26 20 13 12 18 20 18 12 11 6 9 4 7 12 16 13 15 15 16 14 10 13 11 20 19 18 19 23 26 30 36 42 44
22 25 30 32 33 34 32 32 32 29 28 29 26 29 29 27 23 17 10 14 18 18 16 10 9 4 7 6 6 8 13 20 20 19 21 27 17 13 15 16 19 22 25 30 33 38 38 47 51
21 27 31 31 33 36 34 32 32 27 26 26 28 29 27 20 20 9 11 14 16 15 13 8 7 2 9 8 10 11 12 16 23 29 30 35 23 17 18 15 23 27 36 37 41 48 45 60 61
22 25 28 29 33 36 37 35 32 24 24 25 29 29 15 17 17 7 11 14 14 13 11 5 5 2 10 12 12 13 20 21 22 29 27 34 34 23 21 19 22 31 34 41 54 48 55 65 70
26 27 28 30 33 31 39 39 33 24 22 22 27 20 11 13 13 7 10 13 13 12 10 5 4 2 10 17 14 11 20 24 25 26 25 28 31 34 28 25 23 28 34 36 46 47 47 55 59
30 28 31 32 32 31 40 42 32 28 21 22 24 20 6 9 9 7 9 11 12 12 9 4 5 2 9 18 13 13 18 22 22 25 23 26 26 29 37 34 30 23 33 39 54 48 53 56 64
32 34 34 34 31 35 38 42 32 28 20 22 23 20 4 8 12 10 8 11 12 11 11 5 4 2 4 22 18 17 12 20 22 21 23 27 24 22 33 38 36 26 24 37 51 59 60 66 56

GFSSGP_250_spd_009.txt.gz
Wind_Speed
37 32 42 39 44 41 47 42 44 44 46 52 60 64 63 65 67 68 75 62 59 59 57 54 52 53 50 55 54 58 61 62 63 66 66 70 74 78 81 83 88 90 94 98 95 100 98 94 88
37 39 42 45 48 46 52 51 46 44 50 56 63 67 69 71 68 70 75 62 57 60 55 56 56 52 47 47 54 57 62 65 64 67 69 70 74 79 82 81 84 90 90 92 96 100 104 101 97
43 43 50 50 51 57 57 58 51 49 56 62 67 69 72 73 71 71 75 62 59 54 56 57 56 50 49 52 58 62 65 65 65 66 68 72 73 75 74 71 73 82 87 86 89 96 103 106 103
48 48 49 48 52 57 61 62 60 59 61 67 70 76 78 77 69 78 77 63 55 53 57 56 55 53 52 57 62 64 64 63 62 66 70 72 72 72 72 69 68 72 79 83 85 88 96 105 106
55 56 56 54 52 58 62 65 62 65 67 73 74 79 72 73 72 78 73 59 53 55 59 53 56 56 58 63 66 67 68 69 71 69 71 71 70 68 69 68 67 68 71 75 81 85 90 97 103
57 58 58 53 52 58 64 68 72 72 75 72 74 74 78 73 78 78 64 55 57 57 56 55 59 60 60 63 67 67 72 71 70 69 69 66 64 63 65 67 67 68 69 71 74 82 87 89 95
58 57 61 55 57 64 70 72 70 72 71 71 78 76 78 79 82 79 64 60 61 58 57 58 61 60 64 67 68 69 72 68 69 66 65 62 61 60 62 65 66 69 69 70 72 77 85 87 87
61 60 62 62 64 68 74 71 70 73 69 76 80 78 76 79 88 79 66 57 57 60 59 56 59 63 66 66 69 77 71 71 63 61 60 58 59 57 59 61 64 66 70 70 72 74 81 84 86
62 64 66 65 68 70 72 74 72 65 71 83 79 82 83 88 86 68 58 54 57 60 57 59 56 59 64 69 76 75 73 62 58 54 52 46 53 53 53 53 55 61 66 69 72 75 78 82 85
64 64 66 71 71 73 74 67 63 71 79 82 83 79 86 89 74 60 56 56 60 58 58 60 60 66 70 74 79 72 63 58 51 48 45 40 42 44 47 46 48 51 60 66 70 74 77 80 83
60 66 66 68 70 71 67 67 74 79 83 86 79 85 86 79 66 60 58 57 59 57 60 60 65 70 74 80 71 66 57 50 46 45 44 38 36 34 34 38 40 44 48 60 66 70 75 78 81
63 68 69 70 71 70 70 74 77 80 86 79 80 84 82 68 58 61 59 58 60 61 65 67 71 74 79 74 66 56 50 44 44 40 38 33 30 31 28 28 32 36 42 49 59 65 70 75 77
66 70 67 60 61 69 75 74 78 82 82 83 85 78 50 47 39 42 58 61 62 63 68 73 76 78 69 61 55 48 40 39 35 35 33 28 25 27 27 24 26 30 36 43 50 55 63 70 76
68 70 68 70 69 68 76 74 73 81 78 83 82 58 47 41 45 59 65 60 64 68 73 77 73 66 60 57 45 38 35 31 32 30 26 22 20 20 22 20 22 27 32 37 43 47 55 62 71
67 66 70 68 73 72 73 74 79 82 81 83 83 60 60 59 68 69 62 63 68 72 74 70 67 58 51 41 37 30 27 28 28 26 21 17 15 15 16 16 20 23 28 32 36 42 50 56 64
73 67 71 77 73 68 73 79 81 82 86 81 61 58 59 62 64 63 65 67 70 69 65 63 55 47 39 34 27 24 24 26 30 27 21 12 13 11 9 12 15 20 24 28 32 35 43 52 57
67 67 65 72 75 77 74 77 74 85 66 50 49 50 55 57 55 57 59 62 60 60 60 52 44 34 34 27 19 23 20 21 27 29 22 13 9 8 7 8 13 18 20 24 29 32 34 44 52
67 67 68 68 73 69 75 76 78 58 50 48 48 45 45 46 49 49 50 52 56 56 50 40 29 30 29 20 17 23 18 20 24 29 24 21 12 8 4 5 10 15 19 21 26 32 36 39 49
63 64 64 68 70 72 73 64 61 56 52 50 48 45 44 45 48 50 50 53 52 47 38 28 25 28 21 15 16 17 19 16 19 25 25 23 17 9 3 1 5 11 17 22 27 31 35 35 42
64 64 63 64 66 64 57 53 50 46 48 48 44 39 41 45 45 46 48 45 43 35 27 22 24 23 16 11 17 17 22 20 16 21 23 23 18 11 5 2 5 9 15 21 27 33 36 37 41
62 64 64 63 62 51 47 40 34 37 41 42 42 40 41 41 42 40 38 38 35 26 20 21 22 15 12 8 13 15 21 22 18 14 18 21 22 17 6 4 6 9 13 19 26 31 34 37 40
65 64 62 60 47 36 31 31 30 31 33 32 34 36 33 36 34 36 36 32 27 19 19 20 15 12 9 6 11 11 14 17 17 15 15 13 19 21 14 4 8 10 14 19 24 30 33 37 39
66 55 48 37 30 29 28 26 29 32 32 28 27 26 30 32 30 34 31 27 19 16 19 19 13 10 4 3 7 11 6 11 11 15 18 13 13 17 16 8 8 11 13 17 25 31 34 36 41
46 36 31 28 27 26 25 23 30 32 32 24 24 26 26 29 30 32 25 22 16 17 17 15 9 9 2 5 5 10 11 14 20 21 14 9 13 19 19 16 11 13 14 17 23 28 29 31 41
34 29 25 25 23 25 25 28 29 31 31 27 27 25 26 25 28 26 21 17 15 17 16 11 7 5 7 5 5 12 17 17 23 25 25 16 11 9 15 13 13 15 16 18 22 23 26 36 39
29 27 24 23 22 26 24 32 28 32 32 32 32 29 23 21 24 20 18 15 15 16 15 8 5 5 7 7 10 12 20 23 24 22 24 25 12 13 12 14 20 21 20 21 25 25 30 42 42
27 21 23 24 24 28 29 30 31 34 33 35 32 26 22 20 23 16 14 14 15 15 13 6 5 5 7 12 12 13 19 18 21 25 29 26 15 16 11 18 25 27 28 30 30 33 40 45 52
22 25 23 27 26 29 30 32 33 35 34 34 32 24 20 20 18 12 12 12 15 13 12 6 5 5 7 13 15 16 17 20 20 19 30 29 17 17 14 22 30 35 36 32 39 42 45 53 55
26 24 28 25 29 30 31 35 30 34 35 36 33 25 21 20 17 11 9 11 15 12 11 6 6 5 5 18 17 21 20 18 17 19 24 29 27 19 16 19 39 40 34 34 39 38 44 60 57
26 24 30 29 32 31 35 32 30 30 35 35 34 27 20 15 11 12 11 12 14 10 9 6 4 5 3 18 17 22 17 12 12 23 20 26 29 30 24 21 39 37 34 38 45 44 41 61 52

GFSSGP_250_spd_015.txt.gz
Wind_Speed
31 34 37 44 40 35 40 48 52 47 50 52 52 56 52 52 58 64 68 66 63 60 59 62 69 72 71 73 68 51 45 48 54 57 61 61 63 65 69 72 73 74 79 81 84 86 90 91 91
40 35 36 40 42 40 48 52 54 51 53 53 54 54 54 56 61 67 69 68 68 63 64 67 74 78 74 75 64 50 50 54 53 53 56 58 61 66 70 77 79 81 80 83 87 90 91 94 96
45 45 47 41 49 49 51 53 51 53 56 54 54 54 57 63 66 67 66 69 64 61 64 73 78 78 79 69 66 54 56 57 54 55 57 60 62 67 71 75 81 82 82 85 91 94 94 96 97
53 51 51 52 48 51 55 53 53 55 57 59 57 51 60 67 69 72 70 75 67 63 66 74 81 85 76 73 57 56 54 54 56 59 62 64 68 69 74 78 82 82 84 87 88 92 95 94 96
57 53 54 52 50 49 51 53 59 59 61 63 64 58 57 63 70 73 78 73 62 66 77 82 87 83 74 60 52 56 55 55 59 60 62 63 66 72 76 79 83 85 82 84 84 87 94 95 95
58 56 53 53 56 56 54 56 60 62 65 68 68 65 62 66 71 75 74 64 67 76 82 87 84 80 62 52 50 52 53 59 59 58 60 64 68 72 76 79 81 83 82 80 81 80 85 91 94
63 57 55 58 59 58 58 55 59 61 64 68 71 68 66 70 76 73 65 67 76 82 88 87 84 71 54 47 44 47 49 52 53 59 63 68 73 73 74 75 75 75 75 73 74 77 80 84 88
65 57 58 57 58 61 60 57 61 64 69 72 70 67 72 74 78 73 70 71 77 89 89 89 74 62 52 45 45 55 62 60 61 67 71 70 67 65 63 64 63 62 63 64 67 69 75 80 82
65 63 63 62 64 62 59 64 65 70 72 76 71 68 75 81 76 67 69 75 79 82 87 72 60 56 52 47 45 59 59 66 68 70 66 62 58 58 59 57 54 53 54 55 59 63 68 73 76
67 65 67 68 65 63 66 68 68 71 77 79 78 71 79 63 65 75 84 84 82 79 84 58 58 56 53 58 63 66 64 63 66 65 58 53 52 55 55 51 47 47 46 46 50 52 59 64 68
74 70 69 68 66 67 70 69 73 74 79 80 75 76 75 73 72 79 81 80 81 86 66 58 57 56 56 60 66 64 60 61 62 52 47 47 49 50 51 44 39 37 37 41 45 46 52 57 59
79 67 67 70 69 71 72 73 77 76 79 76 72 72 71 74 80 81 81 84 84 71 57 61 58 55 52 55 57 58 60 59 51 43 42 38 45 46 44 37 31 27 31 36 39 38 44 48 55
77 72 70 67 70 76 75 75 73 74 78 73 69 72 69 73 76 81 83 86 77 63 59 60 61 60 56 54 57 57 52 45 43 39 32 35 40 38 36 29 24 23 28 31 31 31 38 42 50
70 63 64 67 71 75 74 74 70 75 75 68 62 71 75 79 82 86 80 78 61 60 57 57 57 57 52 51 50 48 42 41 38 33 31 33 36 33 32 26 22 21 24 27 27 28 33 40 45
65 64 64 68 71 72 71 64 65 70 73 70 70 72 79 83 90 81 74 63 58 55 53 52 54 51 48 48 44 37 36 32 32 28 29 30 33 28 26 21 20 16 20 22 25 26 31 36 39
63 59 59 64 63 64 68 60 66 70 71 67 74 82 80 83 75 64 61 59 57 51 50 52 48 44 46 42 34 32 27 25 28 26 25 27 27 25 21 18 17 12 14 19 21 25 28 32 37
63 62 62 62 62 62 63 62 65 63 70 76 78 79 79 84 67 62 57 52 47 44 46 45 44 45 42 31 30 24 18 23 26 23 23 24 25 24 19 15 13 10 11 15 17 24 28 33 34
63 60 55 51 55 59 61 62 66 67 68 69 72 79 83 58 52 53 51 46 44 43 42 41 44 40 31 28 25 17 16 18 19 20 21 25 25 25 17 12 11 7 9 13 16 21 26 32 32
59 49 45 57 62 62 68 70 67 65 68 68 79 79 60 51 51 53 49 46 38 40 40 43 41 30 27 27 17 13 15 16 19 23 23 23 24 24 15 10 9 7 10 13 17 20 26 33 37
50 49 57 58 60 58 64 65 66 62 66 71 76 59 53 53 55 49 42 41 40 37 40 40 32 26 27 20 12 10 16 19 24 24 26 19 20 21 13 7 6 6 9 13 17 22 28 32 34
54 55 61 61 65 68 71 65 61 63 65 66 50 43 44 50 50 40 37 38 36 35 37 30 25 26 23 15 11 10 11 16 15 20 21 21 16 19 14 3 4 4 11 16 19 24 28 31 32
67 69 64 63 65 66 65 54 57 58 62 51 38 30 37 45 41 36 35 34 33 33 30 23 25 24 16 8 8 8 5 10 17 19 22 18 16 14 14 2 1 5 11 16 20 24 25 29 34
66 69 69 68 67 62 59 55 61 59 52 33 26 27 33 37 35 33 31 30 30 28 21 23 25 20 11 7 2 2 6 16 18 22 22 17 17 19 9 3 5 7 13 17 21 25 25 29 39
70 70 68 70 66 59 65 56 62 55 34 28 20 25 30 29 28 25 26 27 28 19 20 23 22 13 11 6 4 5 9 16 23 27 20 17 19 17 9 7 9 10 13 18 23 26 28 34 44
68 69 65 57 55 59 63 58 57 33 27 21 19 25 27 26 24 23 24 24 21 17 20 21 18 10 10 5 10 10 12 17 23 27 17 16 19 13 10 9 12 14 15 19 26 27 28 35 42
70 69 64 59 60 66 62 41 25 25 17 18 22 25 26 25 22 22 22 22 15 17 20 21 15 10 4 8 13 7 10 17 18 21 14 13 13 14 16 14 17 17 18 19 25 26 26 34 44
63 60 56 62 62 52 32 20 24 12 13 18 23 27 28 20 20 20 23 18 14 18 20 20 13 9 4 11 11 10 13 13 17 22 12 15 12 17 17 17 20 20 18 17 22 28 30 33 41
66 60 58 48 36 27 19 22 13 8 8 15 21 24 29 22 21 22 22 20 14 17 19 19 12 8 4 15 12 12 12 12 19 24 16 14 11 11 16 21 21 19 18 21 19 21 24 27 34
56 43 36 36 28 23 23 22 11 8 7 15 21 23 26 27 22 24 23 19 15 16 18 17 10 7 4 13 16 14 15 9 14 22 24 14 11 14 20 21 20 16 16 18 20 22 24 27 33
43 41 42 37 26 24 24 15 13 9 7 14 20 22 26 33 25 25 23 18 12 15 17 15 10 5 6 16 19 14 16 11 15 18 26 14 13 17 16 17 21 19 19 17 18 22 26 29 33

GFSSGP_250_spd_021.txt.gz
Wind_Speed
41 43 43 41 46 47 47 37 34 41 41 43 41 38 41 43 46 49 52 51 53 58 60 64 66 68 65 67 69 65 61 61 64 64 67 74 68 49 44 46 46 52 61 70 71 70 72 76 80
44 44 43 45 50 49 46 44 44 42 43 46 45 42 44 47 51 54 56 56 58 62 65 66 67 69 71 69 68 66 61 62 65 69 69 74 64 50 47 50 52 53 55 66 73 72 72 75 79
46 47 46 51 51 50 49 48 54 51 47 50 50 53 51 52 55 56 58 59 62 65 66 68 69 71 70 74 64 60 62 59 65 73 77 67 53 50 51 56 59 63 60 60 67 72 74 74 78
40 50 49 52 55 52 51 51 55 56 53 51 55 56 54 57 58 58 61 63 67 68 72 71 71 74 73 71 66 66 67 70 69 74 68 56 52 53 56 56 61 63 64 60 63 70 76 79 79
54 50 50 55 59 52 50 53 59 60 57 55 57 58 59 59 64 64 65 67 72 75 77 73 71 78 77 65 70 77 76 75 72 65 55 52 52 53 55 59 61 64 64 64 64 68 76 82 82
58 56 54 58 60 55 49 57 63 60 61 60 61 59 62 66 66 67 67 69 76 81 82 75 76 73 60 73 80 83 83 71 65 54 49 52 50 52 55 57 59 65 69 69 69 73 75 77 83
60 59 59 63 62 60 55 61 63 64 64 65 65 63 65 65 68 69 72 74 81 81 82 78 73 68 75 75 81 82 71 68 55 47 49 51 49 49 54 56 62 67 69 72 76 75 77 77 80
65 59 63 65 64 62 62 64 66 65 67 70 68 65 69 71 73 72 72 78 81 83 81 77 77 78 78 84 88 87 70 65 56 51 49 51 52 54 55 57 58 59 64 69 72 75 76 78 81
66 61 70 71 64 63 70 69 68 65 69 73 69 71 74 76 71 70 75 79 83 81 78 79 81 84 88 85 87 68 62 55 54 51 51 51 51 53 54 57 59 62 64 67 70 73 76 76 78
69 68 70 69 66 67 70 73 70 66 69 73 74 74 71 67 67 71 76 79 78 78 77 80 82 86 89 85 65 64 58 56 53 51 53 56 53 52 54 56 58 57 58 60 60 64 66 68 72
72 63 71 71 70 70 71 74 72 69 73 75 72 69 65 66 68 72 75 77 78 72 77 81 86 85 80 61 61 56 52 51 53 54 52 53 52 53 52 50 51 51 50 52 55 57 58 61 65
70 67 70 69 73 72 74 72 71 73 74 75 72 64 65 69 70 75 80 76 74 72 78 81 84 84 62 58 57 51 49 49 50 51 52 50 49 46 45 42 43 43 44 46 47 48 48 53 59
68 71 70 72 73 76 76 70 70 75 74 73 66 63 68 71 73 75 73 73 73 75 82 86 82 66 61 56 53 49 47 48 50 49 48 44 40 36 35 37 39 40 41 42 45 42 43 45 49
73 71 71 73 75 77 75 70 75 70 74 67 67 67 69 70 71 68 71 71 77 80 84 82 71 60 58 54 51 49 47 49 46 43 40 37 36 35 35 35 39 41 42 45 40 36 38 40 42
74 73 72 71 75 73 74 71 71 71 70 67 64 63 66 68 65 68 72 73 79 85 85 71 58 58 55 54 50 47 47 43 38 39 33 33 35 37 36 36 39 39 39 39 33 32 35 35 37
69 72 75 79 77 76 70 68 67 62 60 61 63 65 66 60 63 68 71 79 84 85 86 61 58 56 54 53 47 46 42 39 38 32 29 32 34 38 40 43 43 38 36 31 29 28 31 31 32
72 79 77 80 75 72 59 65 64 61 61 61 62 65 61 61 65 70 74 81 83 80 73 59 56 55 52 49 44 40 38 37 32 27 29 34 38 38 41 42 36 33 31 24 24 25 26 27 29
79 64 68 75 71 65 60 59 59 59 61 60 63 57 58 62 66 72 77 80 81 79 59 56 54 52 48 42 37 36 36 31 28 28 32 35 38 42 41 38 32 28 23 20 19 19 20 22 24
66 60 67 76 67 62 59 58 59 60 60 58 55 53 58 66 70 70 76 80 80 58 58 51 51 47 40 34 34 34 30 25 26 29 30 34 39 37 34 31 30 24 18 16 14 15 17 19 20
66 60 65 71 66 60 57 54 57 57 52 48 48 54 60 66 71 77 81 75 64 56 54 50 46 38 32 32 33 30 26 23 24 25 29 36 34 29 28 29 25 18 14 13 10 13 14 18 22
66 62 66 68 60 56 56 56 57 52 48 45 50 57 62 70 73 73 74 73 55 56 46 45 38 32 28 31 29 24 21 21 22 28 32 31 27 26 25 23 17 13 10 8 8 12 13 16 22
65 67 69 66 63 59 57 54 53 50 41 49 55 58 64 66 70 74 72 52 55 48 42 39 32 28 28 28 23 19 20 17 23 28 31 29 27 26 22 16 11 8 6 4 8 12 15 20 21
67 74 69 67 63 59 51 43 53 47 53 56 58 59 59 66 68 61 52 51 48 45 40 33 27 26 27 24 20 19 14 15 25 32 30 25 25 28 19 11 9 5 2 5 10 12 17 21 22
70 69 66 62 57 47 51 49 50 47 53 53 53 54 59 63 59 48 47 50 44 38 33 26 24 24 23 19 15 11 11 19 27 31 22 22 25 24 15 11 6 2 1 6 10 14 20 22 22
57 54 52 48 46 47 55 45 42 44 47 48 52 54 52 50 43 43 49 46 35 32 24 21 21 21 18 13 7 4 10 19 26 31 20 20 22 17 15 10 5 3 4 9 10 15 22 22 22
49 51 47 47 49 49 50 36 37 43 44 46 47 41 43 39 35 40 39 36 31 25 18 19 18 16 13 10 0 5 15 19 27 30 21 21 21 17 14 10 7 6 9 13 13 17 21 22 28
57 44 50 50 49 43 32 40 39 38 39 46 42 34 33 29 32 36 34 30 25 16 14 17 15 13 11 6 2 5 12 18 27 24 22 23 23 19 13 12 9 12 16 15 16 20 22 29 33
58 56 57 47 40 37 41 41 40 37 38 43 28 30 26 28 27 27 29 22 17 11 13 15 13 11 10 4 3 6 15 17 22 23 21 23 21 20 13 11 11 14 15 16 17 20 29 33 36
58 48 43 43 41 42 43 39 40 34 41 29 24 25 23 22 23 23 19 14 12 10 12 15 12 10 9 2 2 6 15 14 22 22 19 22 20 18 15 10 11 13 14 15 15 19 31 35 39
63 57 55 48 48 46 46 45 39 37 36 24 22 20 20 20 16 17 11 11 8 8 11 15 12 10 9 2 6 2 14 15 23 20 23 22 27 21 24 18 15 13 14 14 15 19 25 30 37

GFSSGP_250_spd_024.txt.gz
Wind_Speed
36 34 34 37 40 42 40 42 42 40 38 42 46 42 42 47 49 54 57 51 55 54 53 55 56 58 60 61 66 62 60 57 61 53 55 62 58 60 67 66 64 65 51 51 56 64 72 78 76
33 37 37 40 41 45 42 44 44 43 40 44 46 48 47 52 55 57 59 60 60 62 58 59 63 63 63 67 66 63 57 55 59 59 64 64 69 69 74 63 61 56 48 51 58 58 68 76 77
45 44 46 45 39 43 45 46 46 45 44 45 50 53 55 55 59 61 63 61 62 66 65 66 67 68 69 69 68 61 52 60 67 67 68 69 72 66 65 62 57 49 50 51 56 58 60 65 75
55 43 48 53 53 56 49 45 48 50 47 45 51 57 57 60 61 63 65 64 67 69 72 71 69 70 73 72 66 56 60 66 68 76 70 70 69 67 67 60 51 51 54 56 59 60 62 62 68
57 57 55 54 57 56 50 48 48 53 51 49 54 57 58 62 64 67 69 66 72 73 76 73 68 73 74 73 64 65 68 72 74 72 73 74 64 57 61 55 49 51 55 61 62 66 69 68 67
61 64 64 63 58 58 56 50 51 55 54 55 56 60 62 63 65 70 70 71 73 75 75 67 68 72 75 69 68 68 76 78 82 81 66 60 58 55 51 51 52 52 51 57 66 69 71 70 68
60 67 66 68 66 59 60 54 57 59 58 60 59 62 65 67 67 71 71 74 76 75 66 67 68 77 69 66 69 72 79 83 73 61 58 55 52 52 51 53 53 52 52 50 57 62 66 70 70
66 68 66 67 67 63 65 60 61 59 59 60 61 63 66 68 70 73 74 76 74 69 66 71 76 70 70 67 74 80 82 73 60 58 57 52 51 51 52 54 53 52 52 52 53 58 62 66 69
67 64 66 70 70 70 68 67 69 62 59 62 65 66 70 69 71 75 77 75 69 68 71 75 72 68 69 73 78 84 75 61 59 57 53 44 42 45 48 51 52 53 54 56 57 58 59 60 65
66 67 68 74 71 69 65 69 71 62 60 65 66 68 71 70 74 78 77 71 69 69 71 72 68 68 71 76 86 74 62 60 58 56 50 46 45 45 46 47 51 51 52 54 56 58 59 62 66
66 64 71 70 73 69 68 69 70 66 65 70 66 70 72 72 74 76 75 72 70 68 71 68 68 72 72 74 80 60 59 57 55 51 48 46 45 47 48 49 47 48 50 52 53 54 58 61 64
65 66 70 70 71 69 72 69 67 69 68 70 70 71 71 76 76 76 75 70 67 70 73 68 68 73 76 86 66 59 57 55 55 51 50 50 49 47 43 42 41 41 42 46 48 50 52 54 57
64 67 70 70 69 72 71 67 65 67 72 72 70 73 75 77 76 71 69 69 70 71 69 66 68 76 80 72 60 55 55 55 54 51 50 47 42 40 40 36 33 31 33 36 40 42 46 49 51
64 64 68 69 71 71 72 66 66 70 71 69 72 73 74 73 69 67 70 69 69 67 66 68 72 76 73 60 55 53 53 52 51 49 46 42 41 37 33 32 33 33 33 34 36 36 40 41 41
61 58 60 69 73 69 73 62 69 71 69 69 70 70 69 68 69 69 70 69 66 66 67 69 75 82 63 54 54 52 51 49 47 42 41 40 35 31 33 35 38 37 37 40 37 36 37 36 37
66 64 64 72 75 78 75 53 76 73 68 68 74 70 67 66 68 67 69 62 64 68 70 76 77 70 57 56 53 51 48 46 40 40 38 30 29 31 33 35 37 40 38 35 32 32 33 32 34
66 70 72 72 78 77 68 51 77 70 65 66 66 68 64 67 64 67 58 61 65 68 74 78 71 59 55 54 51 48 44 40 40 37 28 27 31 32 35 39 37 37 35 30 26 25 26 28 28
68 74 76 70 79 71 59 55 75 62 61 63 65 62 64 64 65 56 57 61 64 69 74 70 59 56 54 52 46 43 41 38 36 30 27 29 31 36 39 35 34 33 29 24 20 20 22 23 24
74 72 66 67 76 63 57 57 71 57 61 63 63 63 61 64 56 54 57 64 65 68 72 57 55 57 51 47 43 39 39 33 27 26 27 30 34 36 34 33 35 29 22 15 14 15 17 17 18
77 73 64 73 75 64 60 55 64 56 60 60 60 60 62 62 50 56 61 66 65 71 60 51 59 51 50 41 39 39 32 25 24 23 26 32 35 32 31 33 30 20 13 10 10 11 12 13 14
77 70 69 76 73 61 57 53 56 59 57 56 57 60 64 54 54 59 62 61 63 64 51 55 52 49 43 40 38 32 24 22 19 26 34 38 31 29 31 28 20 11 7 7 7 8 9 11 15
69 69 75 75 68 58 56 54 55 57 55 57 58 62 56 53 57 56 59 62 67 50 52 58 47 46 39 35 32 25 20 15 21 28 36 35 26 27 26 18 11 7 5 3 5 6 10 12 18
64 73 76 74 67 57 54 52 61 55 54 56 52 51 51 50 53 56 60 62 54 49 54 50 45 38 37 32 26 18 10 17 23 29 38 29 26 25 20 15 9 4 1 4 6 10 14 16 17
74 78 75 69 60 50 56 53 64 54 52 48 47 46 46 47 52 55 57 54 47 51 50 45 41 34 33 27 18 10 11 17 24 33 34 26 21 19 16 11 7 4 5 6 10 13 19 19 18
52 51 53 55 53 48 59 47 57 54 41 42 41 40 38 44 51 51 49 46 47 49 45 39 33 30 29 20 14 7 12 19 25 33 27 24 20 17 15 10 5 7 9 11 12 18 20 20 20
46 47 44 46 48 48 56 37 53 38 34 37 35 33 35 44 45 46 44 43 43 46 40 35 29 26 23 16 7 7 13 20 24 27 24 21 22 19 15 11 7 11 14 14 15 21 20 21 23
45 39 40 40 40 43 48 38 34 27 35 32 30 32 36 40 39 38 41 40 40 40 33 29 23 23 17 12 3 8 18 20 25 21 22 19 22 19 18 13 12 16 17 17 20 20 17 19 26
48 46 42 38 38 37 31 28 30 29 32 30 32 30 35 30 33 34 36 37 39 30 27 23 20 20 14 8 3 12 17 21 21 17 23 20 23 18 17 13 14 17 17 17 18 18 20 24 33
52 40 30 31 30 26 27 33 32 32 33 34 34 31 28 26 31 31 32 33 29 25 25 20 18 18 11 2 4 12 18 24 19 20 25 24 21 20 18 15 15 19 19 17 17 20 23 26 36
58 47 39 33 29 33 38 40 36 31 31 35 34 24 20 26 25 28 27 26 25 26 24 19 15 15 9 4 4 10 18 22 16 22 29 31 25 20 20 17 18 19 20 18 20 21 21 26 36

GFSSGP_250_spd_027.txt.gz
Wind_Speed
37 40 33 26 30 33 36 40 44 46 44 41 41 41 41 43 44 44 48 48 51 50 50 51 53 57 58 60 59 56 56 58 58 57 46 41 44 47 51 56 59 59 61 59 63 67 65 64 58
43 43 42 39 39 41 35 38 50 50 45 41 42 44 46 48 50 49 49 50 54 53 54 55 56 60 63 64 55 55 56 60 59 52 44 47 52 55 60 61 62 63 63 64 64 63 65 61 59
48 48 47 51 50 49 50 53 53 50 47 47 45 46 51 54 52 56 56 55 58 58 59 60 61 65 66 56 53 55 60 63 59 50 51 55 59 65 69 69 70 69 69 63 64 65 64 60 60
48 48 55 53 53 53 58 50 55 55 51 48 50 53 58 58 57 60 61 59 63 62 63 65 65 68 62 54 56 59 65 58 52 50 53 59 65 72 74 73 71 70 66 58 57 60 58 57 60
51 51 52 54 56 58 60 57 56 58 55 54 52 54 59 62 61 63 65 64 66 67 68 70 70 67 60 61 61 66 61 55 56 58 64 66 67 66 60 59 60 62 58 56 51 52 53 55 58
54 53 54 55 56 59 60 60 61 56 58 56 54 58 64 65 62 64 66 67 69 71 72 71 71 66 64 63 66 62 59 59 65 63 69 64 60 55 54 55 57 54 55 53 50 51 51 52 59
58 55 53 56 61 62 60 60 60 60 58 57 59 62 66 68 66 65 67 68 72 72 73 73 72 67 64 66 67 63 61 65 65 69 62 54 52 55 55 53 48 49 49 51 52 52 53 52 58
64 64 57 56 61 64 61 61 60 62 60 61 61 62 63 66 67 67 67 69 73 73 75 73 68 68 67 69 64 62 65 66 70 65 53 50 51 51 52 49 45 44 47 49 52 53 55 53 55
65 55 57 59 63 61 62 63 61 64 62 62 62 63 61 66 68 71 70 71 74 74 73 70 65 69 74 65 62 62 67 72 65 56 53 52 48 48 45 45 45 44 45 46 49 52 55 55 56
64 61 62 66 66 62 61 65 61 67 64 63 64 63 62 65 65 73 73 73 72 75 73 66 69 72 66 62 63 68 72 67 58 56 53 51 49 47 44 42 42 43 45 47 50 52 55 58 59
68 62 72 70 73 70 70 65 65 69 64 63 59 58 61 62 67 72 68 69 73 71 68 71 70 72 63 64 68 71 69 60 57 57 53 49 47 41 42 42 43 45 46 48 50 54 56 58 58
61 63 66 68 71 68 70 67 70 61 60 64 56 56 59 63 66 65 68 71 69 68 68 69 74 67 62 65 73 70 60 57 58 56 51 47 43 42 41 39 38 38 39 41 44 46 50 53 57
65 64 63 67 70 66 70 71 70 61 64 56 54 58 60 62 65 68 69 74 66 65 69 71 72 65 64 69 73 59 57 59 57 51 47 44 41 39 38 38 38 36 35 34 38 41 43 45 49
74 70 68 65 65 69 69 71 63 64 62 58 57 60 62 64 70 70 71 66 64 67 69 72 66 62 65 74 60 56 59 55 50 46 44 42 40 39 39 34 30 31 34 34 35 35 37 39 43
75 70 71 65 70 69 73 65 62 63 62 56 61 66 65 70 70 67 64 63 64 66 71 66 64 65 67 65 54 59 54 50 47 43 41 41 41 37 29 28 30 33 33 34 35 35 37 40 45
81 79 72 73 73 72 71 54 63 66 61 60 63 64 65 68 68 65 61 63 65 67 68 63 63 66 71 55 61 59 50 47 43 41 41 38 33 27 28 29 31 32 34 35 35 32 34 37 38
80 80 78 66 65 74 71 58 67 69 66 62 64 63 65 67 64 64 62 63 64 66 62 61 63 70 58 55 60 51 47 43 43 41 33 27 25 25 28 32 34 32 32 32 30 28 28 30 32
71 69 76 76 75 78 75 68 61 68 67 64 64 61 65 61 63 62 61 61 64 64 60 59 63 60 54 60 52 49 45 44 42 30 23 22 25 28 34 32 32 32 31 28 24 24 25 24 26
80 78 73 76 80 80 77 64 62 67 67 57 60 61 60 58 61 60 60 62 63 58 54 59 62 51 57 54 49 47 43 42 31 23 19 23 29 36 35 30 30 30 25 21 18 17 19 21 22
74 71 69 75 78 81 75 65 64 62 62 53 59 61 57 56 58 57 60 62 56 53 55 60 53 52 55 50 48 44 41 33 24 19 23 28 35 38 30 28 27 19 18 15 13 14 16 16 17
70 68 70 71 81 80 73 64 59 60 60 53 60 58 53 56 55 57 60 54 51 50 55 51 49 56 50 47 45 41 36 27 19 20 26 33 37 29 27 25 18 15 12 11 10 11 11 12 13
67 68 68 71 74 70 66 51 56 63 58 57 59 55 53 54 55 55 53 46 44 49 49 45 52 53 47 45 41 37 27 17 18 22 30 32 28 25 23 17 14 11 9 6 6 7 8 10 13
69 72 71 71 69 63 58 48 64 59 59 61 56 51 52 53 51 47 42 41 45 49 41 45 49 50 44 38 36 29 17 15 18 24 30 26 25 20 16 13 10 7 3 4 6 8 11 14 13
69 68 63 58 58 43 52 49 64 60 59 53 53 52 51 47 39 39 37 39 47 41 43 46 49 44 36 34 33 21 13 17 21 25 27 22 20 16 14 11 5 2 4 7 9 10 15 16 16
57 55 51 49 43 32 49 49 64 60 55 52 51 49 44 35 31 32 36 39 45 39 45 46 46 36 33 32 27 14 14 19 21 28 22 18 17 15 14 8 1 5 7 10 11 17 19 17 19
54 53 46 44 42 38 47 42 56 58 46 36 47 41 32 26 31 34 37 42 37 41 42 45 38 31 31 29 17 9 15 18 24 19 17 17 15 13 11 5 6 10 12 13 17 20 18 19 24
55 43 44 35 31 33 37 38 56 41 27 35 35 29 24 26 31 33 37 38 35 39 42 40 33 30 28 24 7 9 14 18 14 17 16 17 18 11 8 9 11 13 15 17 22 22 21 24 28
54 55 39 24 22 24 31 30 37 33 27 31 26 21 22 30 31 33 37 29 35 36 39 34 30 28 25 17 3 7 17 13 15 16 19 19 16 11 10 9 14 14 18 20 22 22 24 26 32
54 42 29 18 15 21 31 28 42 29 22 25 22 22 24 27 28 32 27 28 33 35 35 29 29 25 20 9 3 9 16 10 17 23 24 19 16 14 12 11 15 16 17 18 21 22 27 32 36
60 47 35 27 28 27 29 34 32 24 26 24 22 24 21 23 25 25 23 27 30 31 31 26 26 21 17 5 4 10 16 13 18 24 25 20 21 18 15 13 14 15 16 20 25 27 33 36 49

GFSSGP_250_spd_030.txt.gz
Wind_Speed
42 45 38 40 43 39 37 38 43 40 39 39 41 43 38 42 46 45 47 49 50 48 47 46 48 48 50 52 56 57 55 49 45 47 47 52 50 49 50 48 46 47 52 54 58 60 61 60 60
50 47 51 39 47 48 48 48 47 44 43 41 43 46 45 45 51 50 50 52 52 50 51 49 53 57 52 56 57 60 53 51 51 50 50 52 53 50 48 49 53 55 54 57 60 62 62 65 65
54 53 53 55 48 49 51 50 48 47 48 48 49 52 53 52 52 53 55 55 56 54 55 55 54 57 59 61 63 61 55 55 53 52 55 54 54 50 52 57 62 64 64 66 68 67 69 69 69
50 52 55 60 59 56 57 53 52 51 47 50 58 55 59 57 55 57 59 57 57 60 59 61 56 58 59 63 64 60 55 54 56 57 58 55 56 56 58 62 64 67 70 73 76 77 74 73 72
51 51 57 60 56 56 55 52 53 50 50 52 58 59 61 59 58 60 62 60 60 65 64 63 59 61 62 65 62 56 56 58 64 58 54 55 57 60 65 68 69 66 64 63 61 61 64 73 72
53 53 52 53 55 57 58 56 50 47 51 56 59 62 63 62 63 64 65 62 63 68 65 65 63 62 64 64 59 59 61 68 61 55 55 58 61 66 67 65 59 54 52 54 55 57 57 59 63
55 51 61 62 62 59 57 55 49 50 49 51 56 61 61 58 62 67 67 66 64 68 67 68 61 62 62 60 61 64 67 65 56 57 61 62 64 60 55 52 52 52 52 52 54 55 53 54 57
62 55 51 56 61 64 62 61 57 53 48 51 56 60 59 56 64 68 68 68 64 67 68 62 59 62 60 61 63 66 72 59 57 64 66 63 55 48 47 48 50 51 50 47 48 49 51 51 56
62 58 61 64 64 66 61 59 55 55 54 52 52 57 59 58 61 63 65 67 67 63 66 61 64 62 59 63 67 72 68 62 64 70 64 54 48 45 47 48 48 49 49 48 45 45 48 51 54
67 59 59 63 66 69 65 62 60 59 59 64 64 60 60 59 57 59 61 64 67 65 63 64 67 62 63 64 70 72 64 64 69 63 54 51 49 49 47 47 45 44 44 46 47 47 47 49 51
69 64 68 71 67 67 67 66 64 62 62 69 67 64 59 56 56 56 61 62 65 62 66 74 66 64 66 67 72 66 66 69 67 56 55 53 50 47 45 42 42 41 43 44 47 50 51 51 53
78 73 76 77 77 70 62 64 59 61 61 70 60 56 57 56 56 58 62 60 64 65 70 71 66 68 68 71 73 64 65 69 57 57 54 51 47 43 39 39 39 38 38 38 41 43 47 51 56
79 79 78 72 73 72 65 58 57 58 69 65 56 56 53 53 56 63 64 60 65 68 69 69 67 70 71 75 67 63 67 57 57 53 51 47 43 40 36 36 37 36 36 37 36 38 40 43 47
82 74 68 70 71 69 67 64 65 63 74 62 54 52 57 59 59 66 61 60 65 68 71 68 69 70 72 75 65 67 63 55 54 53 47 44 40 39 38 37 34 32 32 33 34 36 39 42 44
83 80 70 73 71 74 75 63 66 66 72 63 65 62 59 61 65 63 62 64 66 67 69 67 68 70 76 66 64 65 54 55 54 49 44 42 43 40 36 28 27 30 33 35 36 38 41 44 47
79 78 72 70 73 75 76 60 71 69 71 67 63 61 63 64 70 62 63 65 67 68 65 67 68 72 69 62 66 54 52 55 50 45 44 44 40 33 27 24 28 31 35 37 38 40 41 43 47
81 76 77 78 79 79 82 69 75 74 78 70 70 61 64 67 69 64 64 65 66 66 64 65 67 69 62 62 57 52 52 52 46 44 43 39 31 26 24 26 29 34 39 37 38 38 40 40 44
83 85 86 79 82 82 84 76 78 81 83 74 66 60 66 67 63 62 63 65 64 63 63 64 68 65 59 59 49 53 52 46 44 44 39 32 28 25 29 33 34 35 33 34 36 38 38 37 39
84 85 82 85 84 82 79 76 78 74 68 69 64 61 66 64 63 63 61 63 60 62 62 64 64 56 59 48 51 55 48 43 43 39 32 29 27 30 34 36 36 32 33 36 32 31 29 30 32
89 83 76 78 77 75 75 78 74 72 66 62 57 61 62 62 61 59 61 58 60 60 62 62 55 57 50 46 53 50 43 41 38 33 28 27 31 36 33 31 31 31 31 28 25 22 22 21 23
89 82 79 75 78 82 74 75 66 67 62 61 58 63 60 60 59 58 58 57 58 59 61 55 51 52 45 48 51 43 40 39 30 24 24 28 34 35 31 29 28 23 23 20 17 17 17 17 19
79 76 78 82 85 73 81 70 63 61 59 56 62 63 61 59 55 55 55 55 57 58 55 47 53 43 44 49 40 37 37 32 25 24 29 32 36 31 29 25 22 20 17 14 14 14 13 14 15
62 77 82 80 79 74 68 64 54 54 55 55 61 59 55 53 53 52 54 54 55 52 45 47 45 40 45 40 36 35 32 24 25 30 32 34 27 28 25 21 19 15 12 10 9 10 11 13 12
78 77 74 70 67 59 54 56 44 50 56 50 52 50 49 52 50 50 51 53 48 43 44 47 38 41 42 34 32 32 26 21 27 31 32 25 26 24 25 19 13 9 8 7 7 8 11 13 13
76 67 57 56 53 42 49 50 43 56 49 45 43 43 47 46 46 48 48 45 41 40 43 37 36 41 36 31 31 27 18 21 27 28 24 24 21 23 19 10 6 6 6 6 7 11 13 13 13
67 60 56 55 49 40 45 46 43 51 50 38 35 38 41 38 41 43 40 35 37 38 38 32 35 39 31 27 27 19 15 22 23 23 25 23 17 15 8 5 1 4 6 9 14 16 14 15 16
72 61 50 54 45 35 34 35 41 42 39 27 33 35 28 30 32 32 30 33 34 38 28 31 35 34 26 23 20 13 14 18 19 23 23 15 14 8 5 4 2 4 9 13 16 17 17 16 20
81 72 62 51 33 26 31 33 37 39 29 26 27 22 23 23 23 27 29 30 34 27 28 32 36 26 21 19 12 10 14 14 19 17 15 9 12 6 6 4 6 9 13 16 18 18 18 20 23
81 67 53 40 29 20 28 29 37 34 20 26 20 18 21 23 25 27 25 28 27 23 28 31 27 20 19 16 7 8 12 10 17 15 15 13 11 9 7 7 11 13 15 18 19 20 19 19 27
82 69 60 42 34 29 27 36 38 32 25 25 20 21 24 23 24 23 24 28 19 24 28 30 21 19 19 9 4 5 10 11 13 14 15 13 12 11 9 10 12 11 13 17 20 26 29 40 44

GFSSGP_250_spd_033.txt.gz
Wind_Speed
43 48 43 38 42 38 41 34 38 39 44 44 43 40 38 38 40 45 45 49 49 50 50 45 52 53 56 56 54 52 54 55 56 57 52 48 49 52 51 54 54 51 54 56 58 58 58 57 57
55 46 52 46 48 46 42 41 45 46 48 48 49 42 39 41 45 47 49 53 53 54 54 48 52 57 61 59 55 54 56 58 57 55 49 46 49 53 54 56 56 57 56 61 62 64 64 64 64
56 55 49 50 50 49 56 48 43 47 51 51 54 47 42 44 51 52 53 55 58 57 56 51 55 62 66 64 62 59 57 55 51 49 49 51 56 61 60 60 59 59 61 63 66 70 73 72 72
48 50 55 54 57 55 55 55 59 60 57 55 58 54 46 47 51 54 57 60 58 55 53 53 57 65 67 67 66 59 53 49 49 50 54 58 63 62 59 59 60 61 60 61 66 76 76 78 77
52 52 53 56 58 59 53 57 56 60 59 54 55 58 50 42 53 56 59 60 58 56 57 59 56 65 67 67 66 62 55 51 50 55 58 64 66 64 64 64 64 64 64 65 64 65 68 77 83
57 55 50 52 58 57 58 57 57 58 56 54 54 53 55 52 51 53 54 59 62 59 58 57 55 61 65 65 67 63 57 56 55 61 65 69 65 66 66 69 70 69 69 65 59 59 59 62 72
63 58 57 53 55 56 56 58 58 54 54 54 54 58 61 56 47 50 54 59 64 68 63 57 58 57 64 65 66 63 59 60 63 67 70 68 69 68 71 68 62 60 58 56 53 49 50 54 59
66 62 59 60 60 59 57 50 59 62 61 58 58 57 58 60 56 56 60 66 67 68 63 62 61 61 62 65 67 66 61 61 68 70 70 72 68 72 64 58 56 52 52 51 50 50 50 50 58
69 65 58 59 58 55 60 56 61 54 56 56 61 61 61 65 66 64 66 69 70 67 66 64 63 64 66 68 67 64 65 68 71 72 74 71 71 61 57 60 53 53 52 52 50 50 50 49 52
72 68 63 67 67 64 65 64 60 60 60 63 67 68 66 65 67 65 63 63 64 64 66 64 65 67 66 70 69 65 64 70 73 76 73 71 64 62 58 53 50 48 48 49 49 51 50 45 48
78 67 71 70 67 65 64 64 62 61 62 67 68 69 69 68 62 54 61 61 60 63 64 63 66 67 68 70 71 69 67 70 74 76 72 67 61 56 54 50 45 44 43 44 45 47 46 46 46
77 71 73 75 74 67 67 65 65 69 69 72 69 72 62 56 57 55 53 60 62 67 63 69 65 69 72 71 73 70 72 73 78 72 71 63 58 55 50 44 42 41 40 39 40 40 43 47 50
73 73 78 78 77 76 77 74 71 72 77 73 67 68 63 60 62 58 63 67 66 69 71 71 69 71 74 73 73 72 73 77 74 69 65 61 55 51 48 45 43 40 38 38 39 40 42 43 46
78 78 75 78 77 77 76 72 73 72 73 74 70 65 63 62 57 60 63 63 69 72 73 69 70 74 74 74 73 73 74 78 72 65 58 55 52 48 43 41 37 35 29 30 30 33 38 40 43
86 83 79 76 79 79 79 72 73 71 74 71 74 70 65 60 59 66 66 69 73 73 70 72 71 72 72 73 73 73 74 75 66 59 55 52 48 45 41 36 32 29 26 30 32 32 36 38 41
86 83 77 78 82 79 87 69 73 77 78 72 70 68 62 60 67 73 72 75 73 69 69 67 70 70 71 70 72 73 73 72 64 57 52 51 46 43 36 32 26 27 27 31 31 35 38 40 42
82 84 80 82 84 83 84 70 78 80 77 67 65 66 67 66 73 79 76 76 68 68 65 69 69 69 69 69 72 72 70 66 59 54 50 45 43 38 31 30 29 29 32 36 37 38 39 39 42
80 84 89 89 84 87 85 75 76 80 77 74 68 69 68 67 72 71 69 70 67 68 69 67 67 68 67 70 72 67 67 61 55 51 47 43 38 33 32 35 36 31 33 36 40 36 36 38 40
87 92 87 80 84 91 84 75 74 82 81 78 72 69 71 66 66 66 70 67 67 66 66 66 65 64 66 69 64 65 62 56 49 46 44 38 33 31 34 38 32 30 33 38 35 32 36 36 33
90 88 80 83 85 89 83 78 76 79 79 79 74 72 71 65 66 70 70 64 65 66 64 63 63 63 65 67 60 62 54 49 45 44 40 35 34 35 38 38 32 30 33 32 37 35 30 28 27
95 90 84 86 88 90 87 87 77 73 76 75 72 68 66 62 67 70 66 63 64 63 63 60 60 61 63 57 60 55 51 43 42 40 37 37 37 39 40 36 33 31 29 31 29 27 25 22 20
90 85 83 84 86 87 91 82 73 74 75 70 67 60 62 62 66 66 60 60 63 61 59 57 58 59 56 55 55 49 44 41 41 37 36 36 40 37 36 35 33 33 32 28 24 21 19 17 16
79 80 85 84 84 84 79 83 66 71 70 71 62 64 58 61 61 58 55 57 57 56 53 54 56 55 50 53 47 45 39 38 36 33 35 36 33 34 33 34 33 30 28 21 15 14 12 11 12
76 83 83 79 81 74 62 73 55 61 67 67 61 60 59 58 53 52 53 53 51 48 50 52 50 45 49 45 44 40 36 33 31 32 35 30 29 33 33 31 27 24 17 12 10 8 6 8 8
84 78 78 73 66 54 51 56 49 53 52 52 55 56 56 54 49 46 49 46 42 45 49 46 40 45 42 41 41 33 31 28 28 30 29 31 33 30 28 21 18 14 9 7 4 3 3 4 7
83 77 71 63 58 52 58 48 41 48 45 44 47 49 48 46 40 40 38 36 41 45 39 35 40 39 38 40 32 27 24 23 25 27 30 29 29 24 19 13 11 8 5 2 4 8 7 5 6
83 85 58 67 59 54 46 38 42 47 44 44 44 39 42 37 31 28 34 36 37 32 31 35 36 35 37 32 22 21 19 21 21 25 25 28 24 18 10 10 7 5 2 4 9 7 7 5 9
94 73 80 70 61 47 46 40 44 44 40 40 35 29 23 21 22 30 32 29 26 27 31 33 30 33 32 22 18 15 15 19 18 20 20 20 17 11 7 5 4 5 6 10 7 7 8 10 15
90 88 80 72 65 58 49 40 42 33 31 33 28 19 19 23 26 25 25 22 23 27 31 26 29 32 23 15 13 7 12 15 16 16 14 15 14 12 6 4 7 8 9 9 10 7 13 23 16
91 86 80 73 62 49 37 41 43 28 30 25 19 23 24 22 24 24 23 21 25 29 25 24 29 26 14 12 4 3 11 12 12 12 11 13 14 12 5 4 5 6 10 8 9 12 20 25 37

GFSSGP_250_spd_036.txt.gz
Wind_Speed
44 37 40 42 44 42 40 36 35 38 35 35 39 42 44 48 45 40 44 39 39 42 43 47 50 54 53 54 57 59 62 62 66 66 59 55 51 47 46 45 44 47 53 58 61 61 62 60 60
50 43 48 56 51 43 44 38 36 44 49 41 41 45 44 49 52 44 45 45 44 46 47 50 51 54 54 55 59 60 62 63 64 65 63 55 49 47 46 48 52 56 59 63 64 67 66 65 64
53 54 52 48 49 54 46 50 48 51 46 45 45 48 51 55 56 55 53 47 47 50 49 52 52 53 55 57 60 61 61 59 63 65 61 55 53 49 49 53 59 63 62 59 61 64 67 69 67
54 53 52 51 48 52 56 50 48 49 49 53 53 57 56 54 55 57 51 46 49 49 52 51 52 55 60 63 66 61 63 62 65 66 60 56 56 54 55 59 64 61 60 61 62 65 67 68 71
58 56 54 53 51 50 55 62 60 57 57 56 53 55 59 56 52 57 54 55 54 52 55 59 62 61 64 62 62 63 64 66 67 68 65 59 59 57 61 65 65 64 61 61 63 66 67 68 69
61 62 56 56 55 55 54 55 59 64 64 60 61 54 59 60 54 57 58 60 63 59 59 67 70 70 69 67 64 64 68 71 71 72 67 63 62 64 65 70 68 66 67 70 66 61 62 68 69
68 65 59 58 58 58 58 57 55 59 63 58 58 62 59 58 56 56 59 57 61 66 63 68 75 74 62 63 64 65 71 72 71 72 70 68 66 67 73 71 68 71 66 57 53 51 52 52 56
70 67 65 64 64 64 62 58 54 55 57 50 51 49 52 53 53 52 58 62 63 63 65 67 71 72 62 61 65 67 74 72 74 74 72 72 71 73 73 73 72 62 59 55 55 53 51 47 48
65 68 64 67 66 62 62 59 61 58 56 57 57 55 53 52 55 58 60 65 67 71 72 62 61 68 63 63 68 71 77 72 76 75 74 73 73 76 73 75 68 60 57 56 52 49 49 50 50
76 72 67 70 68 66 67 65 63 60 59 59 62 57 58 62 61 58 61 66 66 66 68 63 60 65 68 68 71 77 76 73 77 75 74 75 75 76 74 68 66 62 58 50 47 47 46 47 49
81 71 73 74 73 72 70 68 66 66 63 62 61 63 60 64 67 64 66 74 72 66 70 73 60 63 67 69 73 79 75 75 78 75 76 75 78 76 73 69 64 59 50 49 47 43 43 42 43
88 78 78 78 78 78 74 73 67 66 65 63 62 66 65 67 69 64 69 69 64 68 68 69 63 68 72 71 71 76 76 77 76 75 77 78 76 75 71 67 59 51 49 46 43 43 40 41 41
79 84 87 82 82 80 75 72 71 69 68 70 70 75 73 72 72 69 68 66 66 67 66 71 69 77 79 76 72 74 72 76 75 74 77 79 75 72 69 66 58 50 45 40 36 35 36 36 39
82 87 87 84 80 77 74 67 68 70 74 73 75 79 77 74 73 72 69 68 67 66 66 72 72 80 81 78 74 73 75 74 73 74 75 75 75 69 65 58 55 46 36 29 26 24 23 27 33
96 90 85 79 70 68 71 71 70 69 77 78 76 80 80 79 72 65 63 64 66 66 69 73 76 78 77 76 76 75 75 73 73 74 75 73 72 64 59 55 49 39 31 25 20 23 24 27 31
97 97 85 72 75 73 79 73 73 78 79 75 78 79 83 82 71 70 67 67 70 71 70 76 75 75 75 75 76 75 74 72 73 75 72 71 66 59 54 50 42 33 31 26 25 27 31 34 34
89 87 82 78 79 80 86 81 73 78 79 75 74 75 73 70 70 73 66 66 69 71 74 74 75 71 75 74 74 73 70 72 73 71 70 66 60 56 49 39 35 33 31 32 31 31 35 38 37
86 89 83 85 85 89 85 83 74 80 83 79 79 82 77 78 73 74 73 70 74 73 75 76 74 74 74 72 71 71 67 70 71 70 67 63 55 52 43 37 34 36 34 35 31 33 37 37 34
91 90 89 83 86 89 90 89 76 79 77 77 78 79 78 77 74 74 75 74 78 76 75 74 75 75 70 69 68 65 67 68 68 67 62 58 52 46 40 40 39 35 36 30 31 34 32 33 31
90 92 93 84 85 87 91 89 83 78 76 77 73 76 79 76 74 76 77 72 77 76 73 74 75 72 70 65 63 61 64 64 66 60 56 56 47 41 39 39 34 30 27 27 29 30 33 31 24
93 89 89 87 90 86 90 88 73 72 76 78 78 80 79 77 76 73 74 69 72 71 71 72 70 65 62 61 57 59 62 60 59 56 50 50 40 38 38 37 29 27 27 23 28 27 24 23 21
90 87 92 90 92 83 91 83 72 81 78 78 83 78 75 75 75 72 66 69 67 68 69 68 62 57 55 52 56 58 58 57 54 52 46 38 41 35 38 34 33 33 29 28 24 17 21 17 13
82 91 88 87 85 81 79 81 69 77 74 76 74 73 71 71 71 67 63 66 62 64 64 59 53 52 49 51 52 54 55 53 51 46 40 35 32 28 32 36 32 27 26 22 17 13 13 11 10
81 84 86 85 80 71 68 82 62 64 67 67 65 61 59 55 55 53 60 59 60 60 58 50 47 46 45 46 50 53 50 50 45 39 33 31 36 33 35 29 28 23 19 13 9 8 7 5 5
85 81 81 82 75 62 61 65 44 52 56 46 44 44 43 43 45 44 49 51 53 53 47 43 40 40 40 44 48 47 49 43 37 32 29 32 35 33 29 27 19 15 11 8 5 3 5 3 3
88 84 79 72 63 57 56 45 44 45 41 35 37 41 40 41 44 42 42 44 43 39 38 34 35 34 40 44 44 45 42 36 30 27 25 32 31 35 24 19 15 11 7 4 4 4 3 5 4
89 95 69 76 68 63 54 50 43 40 38 35 34 38 40 40 41 38 37 37 31 30 30 30 29 35 41 40 41 40 34 29 24 22 29 30 32 25 19 14 11 5 4 13 12 10 3 1 8
101 86 88 78 69 60 54 50 44 39 40 36 34 39 36 37 35 29 29 23 22 27 27 25 30 36 36 37 37 31 25 19 20 16 25 28 26 22 14 12 8 6 6 8 6 5 6 17 24
104 99 93 83 76 65 57 54 49 46 39 38 32 36 33 29 21 15 13 19 26 26 22 26 32 31 33 34 30 24 14 16 16 17 22 22 20 19 11 6 5 8 7 10 5 5 21 29 26
109 102 94 85 73 67 62 57 50 40 40 37 34 35 28 20 16 13 18 24 25 21 25 28 26 29 32 28 24 12 9 11 15 20 21 22 18 16 10 5 3 6 8 9 12 23 27 29 40

GFSSGP_250_spd_042.txt.gz
Wind_Speed
54 49 44 46 46 52 42 41 48 41 41 37 40 42 36 38 37 37 36 40 37 41 43 49 45 48 48 49 53 52 55 54 56 61 66 68 62 59 54 54 57 61 60 59 57 56 56 53 52
51 54 48 46 47 46 46 45 45 46 47 46 46 50 40 39 41 38 40 40 41 43 49 50 50 51 51 52 51 55 53 53 60 65 67 65 61 58 55 58 60 63 60 59 62 56 55 55 55
56 56 52 47 49 47 42 42 45 49 50 47 49 48 43 45 39 39 41 42 45 49 55 52 53 53 54 52 53 53 56 59 61 62 60 62 63 59 59 62 64 66 65 63 62 59 57 56 58
59 56 55 56 62 49 46 48 49 48 51 49 49 51 47 39 43 43 44 50 48 55 55 53 53 54 53 54 54 55 58 60 63 60 60 64 62 60 59 64 65 65 65 66 68 64 61 59 61
63 62 61 51 63 66 55 48 52 53 53 49 51 54 50 45 46 49 51 53 52 59 55 53 52 52 48 50 54 57 59 59 65 65 64 62 60 64 64 64 66 64 64 67 68 65 64 64 64
65 62 54 57 59 60 59 58 56 56 55 51 50 53 48 47 52 49 51 49 50 58 51 47 45 50 55 59 60 62 62 64 65 65 65 66 65 69 68 67 66 63 65 69 70 66 64 62 62
70 69 67 61 66 66 60 55 58 57 56 60 56 53 51 49 46 48 48 48 51 52 45 47 48 51 57 59 61 65 68 71 71 69 69 66 68 71 70 68 66 68 70 68 68 65 64 61 55
72 70 68 70 68 64 70 65 65 65 63 63 59 55 55 51 51 51 51 50 52 49 48 50 50 56 59 60 65 69 69 70 70 70 68 68 72 75 73 72 73 74 70 67 65 65 62 55 50
76 71 76 65 65 62 69 68 68 66 68 66 63 61 57 54 56 58 51 54 53 54 55 56 59 62 61 66 69 69 68 67 70 71 70 75 75 75 75 75 75 72 70 67 66 62 57 54 49
80 76 69 75 73 72 73 65 67 66 66 64 58 59 61 63 62 57 57 61 64 57 60 65 71 70 69 69 70 72 74 72 72 73 73 76 77 76 77 75 74 72 68 68 65 60 55 52 47
77 72 73 73 79 78 76 70 70 69 66 65 67 69 68 67 70 70 70 65 64 59 58 62 62 65 69 70 78 79 74 69 73 76 75 75 79 77 76 77 75 70 67 66 63 59 55 51 48
90 84 83 80 76 76 74 72 72 75 69 73 70 71 72 69 67 67 66 63 61 62 67 68 69 70 66 66 68 68 70 73 77 77 78 78 80 78 76 76 72 68 66 64 63 58 54 51 45
95 95 94 84 82 82 79 76 67 64 64 65 63 65 65 67 67 68 69 69 72 71 69 63 65 63 63 65 70 71 74 74 80 78 78 79 80 77 76 72 68 66 67 63 62 58 50 44 39
94 94 92 90 88 87 86 79 76 68 72 72 73 72 71 70 72 73 71 70 72 73 67 65 68 66 66 70 73 72 71 77 79 80 79 78 77 76 74 68 63 64 66 63 60 55 45 36 32
99 100 96 89 82 79 85 79 73 72 74 74 75 74 77 78 76 73 71 70 72 71 73 69 70 72 72 70 67 68 74 77 80 80 78 77 75 75 70 65 61 62 63 61 57 47 40 34 30
95 93 86 77 78 78 86 72 77 81 85 85 86 85 83 75 69 68 72 74 73 71 69 70 71 70 68 67 67 71 74 77 78 77 75 74 74 71 66 62 62 62 61 56 49 41 37 37 36
94 89 88 82 83 86 86 70 70 77 87 83 79 72 72 70 71 73 77 76 75 72 71 70 70 71 73 68 70 72 74 76 77 71 72 70 69 67 63 61 61 61 58 53 46 42 37 33 34
90 86 82 84 83 89 94 82 80 81 83 83 78 76 75 74 75 77 74 77 76 73 74 73 74 74 75 74 71 73 75 73 69 67 65 66 62 60 60 61 60 57 53 45 42 40 36 33 34
92 92 92 94 94 92 96 91 83 82 89 82 79 79 75 72 72 71 74 75 72 71 72 70 70 70 75 75 73 74 74 69 64 60 60 57 55 54 57 58 57 53 49 45 37 36 39 38 37
101 93 89 94 94 92 90 93 89 86 81 80 77 71 73 69 68 70 69 70 75 76 73 71 70 72 75 77 76 75 69 62 59 57 56 55 53 55 55 55 51 50 47 40 37 41 39 40 37
103 99 99 99 101 93 92 89 82 78 76 74 74 73 73 71 71 75 76 76 76 75 72 69 71 72 74 75 72 65 54 53 55 54 53 50 52 52 54 50 47 43 44 40 42 37 35 33 35
100 99 102 104 103 95 101 91 82 77 76 76 78 79 75 76 78 78 72 72 73 71 67 65 66 68 66 60 55 47 46 48 50 51 48 51 50 52 49 46 45 46 43 39 38 30 30 27 24
93 98 98 100 98 98 95 94 76 82 76 80 82 78 79 78 74 70 69 67 64 62 60 59 58 57 51 44 40 39 43 45 47 45 48 47 50 47 47 44 44 42 34 24 23 21 19 17 16
99 95 95 94 93 90 87 89 74 78 77 78 75 71 66 62 60 59 60 59 56 52 52 52 53 46 40 38 34 35 40 40 40 44 44 45 42 42 41 41 39 26 21 18 16 13 13 13 11
102 100 95 91 87 75 84 78 64 66 71 65 58 54 55 56 53 53 50 46 44 46 46 48 37 36 31 28 29 33 35 35 39 39 41 39 37 36 38 37 22 16 13 12 9 7 4 5 4
102 101 98 92 87 81 83 61 61 60 64 58 56 51 49 44 43 41 34 36 37 40 37 35 28 24 23 25 29 29 32 34 36 37 35 32 31 34 33 19 13 13 6 8 6 3 1 1 2
97 95 94 93 91 87 79 69 65 62 59 53 45 40 38 40 36 29 31 29 25 29 28 22 16 18 23 26 28 30 30 33 33 32 28 28 30 29 18 9 8 6 7 8 8 6 3 3 1
94 90 89 88 87 81 71 66 59 58 53 40 31 32 32 34 24 24 21 20 26 24 16 12 16 21 24 26 29 29 30 31 29 24 22 26 25 17 14 7 6 7 3 5 7 2 6 7 5
99 95 90 88 78 69 62 50 50 53 44 34 29 28 29 25 17 18 16 22 20 14 10 15 20 26 26 27 27 28 29 26 21 19 22 21 15 13 13 7 5 6 3 4 5 3 7 6 3
102 97 94 89 74 65 56 46 48 53 38 33 29 27 27 24 18 17 14 21 12 11 14 19 23 26 25 28 25 28 25 20 15 15 17 15 14 16 18 10 4 4 3 2 6 6 3 2 3

GFSSGP_250_spd_045.txt.gz
Wind_Speed
48 48 54 52 51 44 45 46 42 48 43 42 42 41 38 34 37 37 40 38 37 39 41 43 45 50 54 57 53 51 53 53 51 50 52 54 57 56 58 58 58 57 56 56 56 58 58 57 56
56 52 51 50 57 54 50 50 46 43 46 50 45 41 37 40 39 41 44 44 48 40 41 45 49 53 56 55 52 51 51 50 45 48 53 58 60 61 61 61 60 58 58 59 59 58 59 58 56
59 58 61 57 56 52 53 51 46 47 52 48 47 46 45 47 45 42 42 40 41 42 46 50 56 59 57 53 49 48 45 44 49 53 57 63 66 67 65 61 61 60 63 62 63 65 64 62 59
65 63 65 65 66 61 54 55 49 48 51 53 45 46 47 48 44 44 45 44 45 46 52 54 55 56 50 44 46 45 49 51 55 61 62 67 63 63 63 65 62 63 63 65 66 65 64 63 62
65 72 70 63 65 59 59 47 52 53 55 52 51 53 46 48 45 44 43 42 48 50 52 52 51 52 50 47 48 51 56 61 63 63 63 61 63 61 63 65 62 67 69 68 64 64 63 64 65
70 64 68 70 69 69 64 60 60 51 51 54 52 45 44 43 45 45 44 44 43 48 53 54 53 50 50 53 59 61 62 64 65 65 64 65 68 65 65 70 71 67 67 69 66 62 62 62 63
67 74 73 75 77 71 65 58 58 57 57 55 50 45 49 46 50 50 49 45 46 48 53 53 49 50 52 57 61 63 63 64 67 68 69 69 67 64 65 70 73 68 67 64 64 63 62 61 61
76 76 74 75 75 73 69 61 57 58 61 64 61 58 56 56 55 54 51 50 50 52 53 55 56 54 56 60 59 64 68 69 70 72 71 67 66 66 70 77 76 71 68 66 64 64 61 60 60
76 73 75 77 76 75 72 71 73 71 70 70 66 64 64 61 59 56 50 52 51 52 55 59 62 59 59 60 64 67 68 72 71 65 70 73 72 73 70 77 76 71 69 67 65 62 61 60 58
82 74 73 79 79 78 74 81 79 76 69 65 66 65 63 56 51 51 53 55 56 61 62 67 65 61 61 65 67 69 71 69 71 74 74 77 74 72 75 76 75 72 68 67 64 62 60 55 55
87 82 78 77 84 83 80 75 78 75 74 75 74 69 67 69 62 64 68 63 67 66 71 67 65 64 67 71 72 73 73 78 74 75 77 74 72 76 78 76 75 71 69 66 64 62 58 53 53
97 84 82 82 86 82 79 77 67 67 66 74 74 72 73 71 68 68 69 67 66 69 66 65 69 71 75 75 74 76 78 76 75 75 76 73 76 78 78 78 73 70 68 64 63 63 58 53 55
92 88 86 81 83 80 76 74 70 65 62 64 65 65 66 64 67 69 59 61 65 68 71 71 70 67 73 72 75 75 73 74 73 74 72 77 78 79 79 77 72 68 65 62 60 62 59 55 53
94 96 91 86 86 86 82 75 76 70 66 63 61 58 58 57 58 60 66 70 72 71 66 69 69 72 75 75 78 77 75 75 73 74 74 78 78 78 79 74 69 67 62 59 60 59 59 54 48
106 103 101 94 93 92 92 84 77 70 72 75 77 76 75 71 69 71 67 69 71 71 72 71 72 73 74 79 80 74 78 77 75 73 76 80 80 77 74 69 67 62 55 58 60 58 54 51 47
112 110 103 97 94 92 95 78 76 75 78 78 73 77 78 74 72 72 76 77 73 73 71 71 73 76 77 74 74 71 72 71 73 75 79 82 81 77 72 64 58 53 59 60 58 55 48 46 46
106 100 95 92 92 98 97 81 82 82 85 86 87 81 73 73 73 74 76 72 72 75 76 76 78 76 73 72 67 74 77 75 76 79 80 82 79 72 60 56 58 56 59 58 56 49 47 46 43
91 89 90 90 89 93 93 87 85 88 93 90 84 76 74 75 72 72 69 70 74 77 75 72 70 67 68 70 76 78 77 77 78 80 81 77 70 64 56 58 56 58 58 57 52 48 47 45 39
99 98 97 93 93 96 90 86 86 86 91 87 82 79 78 71 71 70 71 76 77 73 72 70 71 72 75 76 77 76 76 77 78 76 69 62 61 57 56 57 57 57 56 52 45 42 40 39 38
106 101 102 100 102 98 97 90 87 86 83 86 84 81 78 76 76 73 74 78 71 70 70 71 74 78 80 77 76 76 75 73 68 61 59 56 53 53 54 54 53 54 51 46 38 42 46 44 41
112 107 109 106 106 98 94 90 86 84 84 82 79 76 74 75 72 73 76 72 70 71 73 76 79 81 80 75 71 73 67 59 56 51 47 47 49 50 51 50 51 45 38 41 47 44 41 40 40
118 111 108 109 106 99 97 86 83 78 78 79 78 75 72 74 74 74 72 71 72 75 78 80 77 71 69 70 70 60 56 50 49 44 43 45 46 48 47 48 42 38 41 47 37 32 30 31 32
116 116 115 113 108 106 99 92 80 88 76 79 80 80 76 74 72 72 73 75 77 78 77 68 64 66 65 64 59 57 48 50 43 40 40 42 45 45 45 41 36 43 44 33 30 28 27 25 24
112 117 119 114 112 110 104 100 76 86 86 87 87 79 76 76 74 75 78 76 72 67 62 59 60 58 59 56 49 43 42 42 37 37 41 42 43 42 38 38 41 40 31 27 24 21 18 17 17
111 111 110 108 105 91 90 88 71 79 80 87 85 80 75 71 72 71 69 62 59 58 53 48 51 54 50 40 38 34 35 32 34 38 39 41 39 35 35 39 36 27 21 20 18 16 14 12 11
109 107 105 102 96 89 87 74 67 73 71 73 72 69 67 65 61 59 54 54 51 47 44 43 49 45 39 29 26 29 27 33 35 36 39 34 30 31 35 33 26 16 12 15 14 14 13 11 7
106 104 101 100 97 90 81 67 66 65 66 66 62 55 56 52 51 51 49 46 42 37 37 42 39 32 22 19 22 25 31 32 34 37 31 26 27 31 28 24 16 11 12 13 15 14 7 8 8
102 100 98 95 92 85 78 70 62 65 68 64 55 49 49 49 45 44 43 32 33 30 34 34 29 18 16 20 24 26 31 31 35 30 23 22 25 22 21 19 15 12 11 8 10 9 10 7 6
108 101 95 87 80 73 71 67 67 67 65 63 55 51 48 44 42 41 29 32 24 24 29 20 18 17 19 22 25 29 28 32 32 22 18 19 20 19 20 19 13 14 10 8 8 6 11 12 12
112 107 99 88 77 67 58 55 60 61 65 56 52 43 41 40 38 34 28 24 19 20 18 16 17 19 21 23 28 27 28 31 25 16 17 18 17 20 20 17 12 9 7 6 4 6 11 14 15

GFSSGP_250_spd_048.txt.gz
Wind_Speed
58 55 57 57 59 51 39 42 43 44 47 43 37 43 35 36 36 37 39 36 34 38 38 42 44 47 48 50 50 57 56 53 52 44 48 43 46 52 55 57 57 57 54 54 54 56 53 53 56
59 61 64 58 57 57 44 48 50 35 40 46 46 41 42 41 40 38 38 41 41 39 40 39 44 46 48 52 58 58 54 52 48 45 43 49 56 59 61 61 59 57 55 57 55 56 57 55 56
65 66 62 56 58 56 47 44 48 49 49 45 45 46 47 49 46 43 42 44 43 44 44 47 45 45 51 54 56 54 50 49 44 46 53 58 63 65 66 61 63 64 60 57 60 59 64 61 60
66 64 66 60 65 60 54 51 48 51 50 46 53 55 54 52 49 49 46 45 46 44 46 43 46 50 53 53 51 50 50 46 53 56 60 63 65 65 66 62 62 62 66 67 66 66 70 62 59
72 68 66 68 68 64 59 56 56 55 52 53 48 49 51 50 47 42 40 41 41 43 47 47 52 55 55 54 47 48 50 53 59 60 61 64 66 65 63 61 68 70 68 67 67 66 68 65 60
80 72 64 70 74 69 60 60 63 62 58 54 55 51 50 50 46 46 44 44 47 47 48 49 53 53 55 52 49 52 58 66 62 61 63 66 66 61 66 69 70 71 67 66 70 68 66 66 61
79 76 75 79 76 69 64 60 66 65 58 51 52 50 55 58 57 52 49 49 49 48 50 52 51 54 54 53 57 60 65 65 62 63 65 68 70 71 76 71 74 71 66 69 70 70 68 63 61
83 84 75 72 70 77 71 73 68 62 60 57 56 56 56 53 59 61 55 55 53 52 53 52 51 52 54 57 64 68 65 62 65 68 71 72 75 75 73 72 72 67 71 73 73 71 69 63 63
84 80 81 79 78 78 77 71 71 66 71 72 70 63 59 59 62 61 58 55 51 54 52 52 51 55 58 65 65 65 65 69 69 70 72 73 76 74 75 72 71 70 72 74 74 72 69 64 62
85 81 76 83 84 86 84 78 80 75 73 72 66 65 65 63 66 65 55 55 53 50 51 54 59 62 63 65 66 67 68 73 75 76 76 78 81 77 75 74 72 73 74 75 76 72 66 64 60
84 78 84 87 87 85 84 81 77 73 73 80 79 74 70 70 72 70 64 62 65 63 59 59 62 64 65 69 72 76 74 76 76 76 79 80 77 76 77 77 74 74 76 77 74 70 67 61 56
93 86 89 90 90 89 84 75 75 75 71 75 71 75 74 73 68 66 63 65 68 65 57 59 63 64 66 72 78 73 76 80 75 79 80 78 75 73 74 74 73 76 78 78 72 68 60 56 56
106 93 85 89 94 86 85 80 75 72 72 75 74 72 67 66 65 67 65 63 60 60 63 68 66 69 77 74 76 79 78 77 80 80 78 71 71 76 80 77 77 78 79 75 70 61 56 57 58
97 101 98 95 89 90 90 83 77 66 69 70 72 72 66 64 67 67 65 61 62 62 69 73 74 71 74 77 81 79 78 81 80 78 71 71 77 78 78 79 79 78 74 68 62 57 57 59 59
104 101 103 100 94 90 90 88 85 76 71 62 65 71 72 71 72 69 64 69 73 76 75 68 70 74 75 77 76 78 79 74 72 73 76 80 78 77 78 77 76 67 63 63 59 55 58 61 60
110 108 104 101 100 97 98 85 77 76 77 73 73 68 65 73 78 74 72 75 70 68 70 70 71 71 73 75 78 79 75 72 75 78 79 81 80 79 74 71 62 56 58 58 56 57 60 59 55
114 109 103 103 101 103 105 81 85 88 88 85 82 83 82 74 73 70 70 67 68 74 69 72 74 75 76 79 78 72 72 75 80 83 83 82 77 75 66 59 55 52 54 55 56 56 57 55 47
110 115 114 110 105 110 111 94 95 94 94 91 92 82 78 78 76 77 78 77 78 75 76 76 75 78 80 78 73 72 75 80 85 83 78 76 72 65 57 56 42 49 53 53 54 55 53 44 39
107 111 113 114 111 107 103 98 103 105 102 95 93 92 89 83 73 78 76 77 77 78 77 77 78 77 77 70 71 75 79 85 81 76 75 68 61 58 55 52 51 52 52 53 55 53 44 42 44
112 107 105 107 108 104 99 95 97 95 94 91 83 79 72 72 73 75 75 78 79 77 77 76 74 73 70 70 75 79 82 77 75 72 64 60 58 55 52 50 49 51 53 52 48 43 47 48 46
115 110 105 103 105 101 95 94 88 84 82 79 76 74 74 74 74 75 77 78 75 71 72 71 69 68 69 72 77 79 74 72 69 60 56 55 55 50 48 49 49 52 49 44 43 46 43 38 39
119 114 115 110 106 103 98 91 86 80 79 75 75 75 74 74 73 74 75 73 69 71 70 69 70 72 74 76 71 68 69 65 56 53 52 51 47 46 47 48 50 45 41 42 42 34 32 30 28
122 119 119 120 119 111 103 95 76 79 74 76 81 79 75 72 67 67 68 70 72 71 71 72 72 74 73 66 65 65 59 54 50 48 48 43 43 45 46 47 43 39 39 34 30 28 27 25 24
118 118 117 115 113 114 103 101 75 80 80 83 80 79 76 73 72 73 75 74 71 72 70 69 70 65 61 61 60 56 51 49 45 43 39 39 42 43 43 39 38 37 33 25 24 25 25 23 22
109 113 114 114 109 98 107 107 83 85 85 84 82 82 79 81 78 79 76 77 76 75 72 68 61 58 57 54 53 50 46 42 38 34 35 37 40 39 35 34 35 33 25 20 22 23 25 20 18
104 104 109 111 104 99 100 93 81 83 82 81 84 83 81 80 77 72 71 70 70 69 65 55 55 52 51 51 46 42 41 36 33 33 34 38 39 32 31 32 31 27 19 18 22 23 23 19 16
107 101 100 103 102 101 92 83 84 80 79 82 84 83 73 67 64 63 60 57 55 53 50 49 48 45 46 45 39 35 34 31 32 34 36 38 31 27 27 28 27 23 15 17 17 21 21 16 14
109 104 100 95 91 91 87 83 73 73 76 82 76 66 59 58 57 54 48 45 44 43 43 44 41 41 38 32 28 30 29 32 33 33 37 31 26 25 25 29 28 23 18 17 14 17 17 16 12
107 104 100 93 84 78 79 77 75 75 74 76 67 59 55 53 49 46 43 41 41 40 39 37 39 40 28 25 26 25 28 31 29 35 31 25 22 23 26 30 27 22 17 13 12 12 16 15 12
99 103 100 94 83 75 70 70 71 67 68 74 66 59 52 50 46 44 42 40 38 33 35 36 35 25 22 24 22 23 28 28 30 31 27 20 19 22 27 28 23 18 12 7 4 10 13 14 17